User: anonymous   Login
Location: San Francisco
(37.7750°N, 122.4180°W)
Time: 19:09:28
(UTC-07:00)
Language:

GP-B - Orbit

View from above orbital plane
View from above orbital plane
View from above satellite
View from above satellite

Ground track
Ground track

The orbit data is extracted from the following two-line orbital elements,

1 28230U 04014A   16209.89865384 +.00000138 +00000-0 +16661-4 0  9999
2 28230 089.8626 127.9875 0002036 098.3007 261.8446 14.78445428118382
Epoch (UTC): 27 July 2016 21:34:03
Eccentricity: 0.0002036
inclination: 89.8626°
perigee height: 633 km
apogee height: 635 km
right ascension of ascending node: 127.9875°
argument of perigee: 98.3007°
revolutions per day: 14.78445428
mean anomaly at epoch: 261.8446°
orbit number at epoch: 11838

The dashed part of the orbit path shows where the satellite is in the earth's shadow,  

DLR